TimePDT,TemperatureF,Dew PointF,Humidity,Sea Level PressureIn,VisibilityMPH,Wind Direction,Wind SpeedMPH,Gust SpeedMPH,PrecipitationIn,Events,Conditions,WindDirDegrees,DateUTC
12:15 AM,57.2,39.2,51,29.95,10.0,NNW,4.6,-,N/A,Thunderstorm,Clear,330,2013-05-08 07:15:00
12:35 AM,57.2,37.4,48,29.95,10.0,West,3.5,-,N/A,,Clear,270,2013-05-08 07:35:00
12:55 AM,57.2,37.4,48,29.95,10.0,Calm,Calm,-,N/A,,Clear,0,2013-05-08 07:55:00
1:15 AM,57.2,37.4,48,29.95,10.0,Calm,Calm,-,N/A,,Clear,0,2013-05-08 08:15:00
1:35 AM,55.4,37.4,51,29.95,10.0,Calm,Calm,-,N/A,,Clear,0,2013-05-08 08:35:00
1:55 AM,55.4,37.4,51,29.96,10.0,Calm,Calm,-,N/A,,Clear,0,2013-05-08 08:55:00
2:15 AM,55.4,37.4,51,29.96,10.0,Calm,Calm,-,N/A,Thunderstorm,Clear,0,2013-05-08 09:15:00
2:35 AM,57.2,37.4,48,29.96,10.0,West,4.6,-,N/A,,Clear,260,2013-05-08 09:35:00
2:55 AM,55.4,37.4,51,29.96,10.0,Calm,Calm,-,N/A,,Clear,0,2013-05-08 09:55:00
3:15 AM,53.6,35.6,51,29.97,10.0,Calm,Calm,-,N/A,,Scattered Clouds,0,2013-05-08 10:15:00
3:35 AM,53.6,35.6,51,29.98,10.0,Calm,Calm,-,N/A,,Overcast,0,2013-05-08 10:35:00
3:55 AM,53.6,35.6,51,29.98,10.0,Calm,Calm,-,N/A,,Overcast,0,2013-05-08 10:55:00
4:15 AM,53.6,35.6,51,29.98,10.0,Calm,Calm,-,N/A,,Overcast,0,2013-05-08 11:15:00
4:35 AM,55.4,37.4,51,29.98,10.0,North,3.5,-,N/A,,Overcast,350,2013-05-08 11:35:00
4:55 AM,55.4,37.4,51,29.98,10.0,Calm,Calm,-,N/A,,Overcast,0,2013-05-08 11:55:00
5:15 AM,55.4,39.2,54,29.98,10.0,Calm,Calm,-,N/A,,Overcast,0,2013-05-08 12:15:00
5:35 AM,55.4,41.0,58,29.99,10.0,North,3.5,-,N/A,,Overcast,10,2013-05-08 12:35:00
5:55 AM,55.4,39.2,54,29.99,10.0,Calm,Calm,-,N/A,,Mostly Cloudy,0,2013-05-08 12:55:00
6:15 AM,55.4,41.0,58,30.00,10.0,Calm,Calm,-,N/A,Thunderstorm,Overcast,0,2013-05-08 13:15:00
6:35 AM,55.4,39.2,54,30.01,10.0,Calm,Calm,-,N/A,,Overcast,0,2013-05-08 13:35:00
6:55 AM,55.4,37.4,51,30.01,10.0,Calm,Calm,-,N/A,,Mostly Cloudy,0,2013-05-08 13:55:00
7:15 AM,59.0,39.2,48,30.02,10.0,Calm,Calm,-,N/A,,Scattered Clouds,0,2013-05-08 14:15:00
7:35 AM,60.8,35.6,39,30.03,10.0,Calm,Calm,-,N/A,,Mostly Cloudy,0,2013-05-08 14:35:00
7:55 AM,62.6,35.6,37,30.03,10.0,NNE,3.5,-,N/A,,Partly Cloudy,20,2013-05-08 14:55:00
8:15 AM,60.8,35.6,39,30.04,10.0,Calm,Calm,-,N/A,,Scattered Clouds,0,2013-05-08 15:15:00
8:35 AM,62.6,35.6,37,30.05,10.0,Calm,Calm,-,N/A,,Mostly Cloudy,0,2013-05-08 15:35:00
8:55 AM,64.4,35.6,34,30.05,10.0,Calm,Calm,-,N/A,,Mostly Cloudy,0,2013-05-08 15:55:00
9:15 AM,64.4,37.4,37,30.05,10.0,Calm,Calm,-,N/A,,Mostly Cloudy,0,2013-05-08 16:15:00
9:35 AM,64.4,37.4,37,30.06,10.0,ENE,3.5,-,N/A,,Mostly Cloudy,60,2013-05-08 16:35:00
9:55 AM,66.2,37.4,35,30.06,10.0,Calm,Calm,-,N/A,,Mostly Cloudy,0,2013-05-08 16:55:00
10:15 AM,66.2,37.4,35,30.06,10.0,SSW,3.5,-,N/A,,Mostly Cloudy,200,2013-05-08 17:15:00
10:35 AM,68.0,37.4,33,30.06,10.0,NNE,4.6,-,N/A,Thunderstorm,Partly Cloudy,20,2013-05-08 17:35:00
10:55 AM,68.0,37.4,33,30.06,10.0,East,4.6,-,N/A,,Partly Cloudy,80,2013-05-08 17:55:00
11:15 AM,68.0,35.6,30,30.06,10.0,Calm,Calm,-,N/A,,Clear,0,2013-05-08 18:15:00
11:35 AM,69.8,35.6,28,30.05,10.0,NE,3.5,-,N/A,,Clear,40,2013-05-08 18:35:00
11:55 AM,71.6,35.6,27,30.05,10.0,NNE,11.5,-,N/A,,Clear,20,2013-05-08 18:55:00
12:15 PM,71.6,35.6,27,30.04,10.0,NNE,11.5,-,N/A,,Clear,20,2013-05-08 19:15:00
12:35 PM,71.6,35.6,27,30.04,10.0,Calm,Calm,-,N/A,,Clear,0,2013-05-08 19:35:00
12:55 PM,73.4,33.8,23,30.03,10.0,Calm,Calm,-,N/A,,Clear,0,2013-05-08 19:55:00
1:35 PM,73.4,33.8,23,30.02,10.0,ENE,8.1,-,N/A,,Clear,70,2013-05-08 20:35:00
1:55 PM,73.4,33.8,23,30.02,10.0,East,5.8,-,N/A,,Clear,90,2013-05-08 20:55:00
2:15 PM,73.4,33.8,23,30.01,10.0,NE,5.8,-,N/A,,Clear,40,2013-05-08 21:15:00
2:35 PM,73.4,32.0,22,30.00,10.0,ESE,6.9,-,N/A,Thunderstorm,Clear,120,2013-05-08 21:35:00
2:55 PM,75.2,32.0,21,29.99,10.0,NNW,4.6,-,N/A,,Partly Cloudy,330,2013-05-08 21:55:00
3:15 PM,75.2,33.8,22,29.98,10.0,NE,8.1,-,N/A,,Partly Cloudy,40,2013-05-08 22:15:00
3:35 PM,75.2,33.8,22,29.97,10.0,NNE,11.5,-,N/A,,Clear,30,2013-05-08 22:35:00
3:55 PM,73.4,33.8,23,29.97,10.0,NE,8.1,-,N/A,,Clear,50,2013-05-08 22:55:00
4:15 PM,73.4,33.8,23,29.97,10.0,North,9.2,-,N/A,,Clear,360,2013-05-08 23:15:00
4:35 PM,75.2,33.8,22,29.96,10.0,NE,6.9,-,N/A,,Partly Cloudy,40,2013-05-08 23:35:00
4:55 PM,75.2,33.8,22,29.96,10.0,NNE,4.6,-,N/A,,Partly Cloudy,30,2013-05-08 23:55:00
5:15 PM,75.2,33.8,22,29.96,10.0,NE,5.8,-,N/A,,Partly Cloudy,40,2013-05-09 00:15:00
5:35 PM,73.4,33.8,23,29.96,10.0,Calm,Calm,-,N/A,,Partly Cloudy,0,2013-05-09 00:35:00
5:55 PM,73.4,33.8,23,29.96,10.0,East,3.5,-,N/A,,Mostly Cloudy,80,2013-05-09 00:55:00
6:15 PM,73.4,33.8,23,29.96,10.0,SSW,4.6,-,N/A,,Overcast,200,2013-05-09 01:15:00
6:35 PM,73.4,37.4,27,29.96,10.0,NNW,11.5,18.4,N/A,,Mostly Cloudy,330,2013-05-09 01:35:00
6:55 PM,71.6,37.4,29,29.97,10.0,WNW,11.5,-,N/A,,Mostly Cloudy,290,2013-05-09 01:55:00
7:15 PM,71.6,37.4,29,29.98,10.0,WNW,12.7,-,N/A,,Mostly Cloudy,290,2013-05-09 02:15:00
7:35 PM,69.8,39.2,33,29.98,10.0,West,9.2,-,N/A,,Scattered Clouds,280,2013-05-09 02:35:00
7:55 PM,69.8,37.4,31,29.98,10.0,WNW,5.8,-,N/A,,Partly Cloudy,300,2013-05-09 02:55:00
8:15 PM,68.0,37.4,33,29.98,10.0,West,5.8,-,N/A,,Scattered Clouds,280,2013-05-09 03:15:00
9:15 PM,66.2,37.4,35,29.99,10.0,Calm,Calm,-,N/A,,Clear,0,2013-05-09 04:15:00
9:35 PM,66.2,35.6,32,30.00,10.0,Calm,Calm,-,N/A,,Clear,0,2013-05-09 04:35:00
9:55 PM,66.2,35.6,32,30.00,10.0,NW,4.6,-,N/A,,Clear,320,2013-05-09 04:55:00
10:35 PM,66.2,37.4,35,30.01,10.0,Calm,Calm,-,N/A,,Clear,0,2013-05-09 05:35:00